Weather History for Driggs, ID

Change the Weather History Date:

Wednesday, January 1, 2014

  Actual Average (KRXE) Record (KRXE)
Temperature  
Mean Temperature 9 °F 20 °F  
Max Temperature 20 °F 28 °F 38 °F (2006)
Min Temperature -2 °F 12 °F -11 °F (2011)
Degree Days  
Heating Degree Days 56 45  
Month to date heating degree days 45  
Since 1 July heating degree days 3427  
Cooling Degree Days 0 0  
Month to date cooling degree days 0  
Year to date cooling degree days 0  
Moisture  
Dew Point 11 °F    
Average Humidity 90    
Maximum Humidity 100    
Minimum Humidity 78    
Precipitation  
Precipitation 0.00 in 0.03 in 0.30 in (1986)
Month to date precipitation 0.03  
Year to date precipitation 0.03  
Sea Level Pressure  
Sea Level Pressure 30.35 in    
Wind  
Wind Speed 3 mph (ENE)    
Max Wind Speed 7 mph    
Max Gust Speed -    
Visibility 2 miles    
Events Fog    
T = Trace of Precipitation, MM = Missing Value Source: NWS Daily Summary

Daily Weather History Graph

Daily Weather History Graph

Search for Another Location

Airport:

Trip Planner

Search our weather history database for the weather conditions in past years. The results will help you decide how hot, cold, wet, or windy it might be!

Date:

Astronomy

Jan. 01, 2014 Rise Set
Actual Time 7:58 AM MST 4:58 PM MST
Civil Twilight 7:25 AM MST 5:30 PM MST
Nautical Twilight 6:49 AM MST 6:06 PM MST
Astronomical Twilight 6:14 AM MST 6:41 PM MST
Moon 7:49 AM MST (1/1) 5:49 PM MST (1/1)
Length of Visible Light 10h 05m
Length of Day
8h 59m
New Moon, 0% of the Moon is Illuminated
Jan 1
New Moon
Jan 7
First Quarter
Jan 15
Full
Jan 23
Last Quarter
Jan 30
New

Hourly Weather History & Observations

Time (MST) Temp. Windchill Dew Point Humidity Pressure Visibility Wind Dir Wind Speed Gust Speed Precip Events Conditions
12:38 AM 19.4 °F - 17.6 °F 93% 30.15 in 1.5 mi Calm Calm - N/A   Mostly Cloudy
12:40 AM 17.6 °F 12.3 °F 15.8 °F 93% 30.15 in 0.5 mi WNW 3.5 mph - N/A Fog Light Freezing Fog
12:47 AM 12.2 °F - 10.4 °F 92% 30.14 in 0.2 mi Calm Calm - N/A Fog Light Freezing Fog
12:56 AM 12.0 °F - 9.1 °F 88% 30.22 in 0.2 mi Calm Calm - N/A Fog Light Freezing Fog
1:28 AM 17.6 °F 10.7 °F 15.8 °F 93% 30.16 in 0.2 mi NNE 4.6 mph - 0.00 in Fog Light Freezing Fog
1:46 AM 19.4 °F 14.3 °F 17.6 °F 93% 30.17 in 0.2 mi ENE 3.5 mph - 0.00 in Fog Light Freezing Fog
1:56 AM 20.1 °F 15.2 °F 18.1 °F 92% 30.20 in 0.2 mi NE 3.5 mph - 0.00 in Fog Light Freezing Fog
2:56 AM 20.1 °F 12.3 °F 18.1 °F 92% 30.22 in 0.2 mi NE 5.8 mph - N/A Fog Light Freezing Fog
3:30 AM 15.8 °F 10.2 °F 12.2 °F 86% 30.21 in 0.2 mi East 3.5 mph - N/A Fog Light Freezing Fog
3:38 AM 15.8 °F 8.6 °F 14.0 °F 93% 30.22 in 0.5 mi Variable 4.6 mph - N/A Fog Light Freezing Fog
3:45 AM 15.8 °F - 14.0 °F 93% 30.22 in 0.2 mi Calm Calm - N/A Fog Light Freezing Fog
3:48 AM 17.6 °F 12.3 °F 14.0 °F 86% 30.22 in 0.2 mi Variable 3.5 mph - N/A Fog Light Freezing Fog
3:56 AM 16.2 °F 6.5 °F 14.0 °F 91% 30.28 in 0.2 mi Variable 6.9 mph - N/A Fog Light Freezing Fog
4:06 AM 17.6 °F - 15.8 °F 93% 30.22 in 0.2 mi Calm Calm - N/A Fog Light Freezing Fog
4:17 AM 12.2 °F - 10.4 °F 92% 30.23 in 0.2 mi Calm Calm - N/A Fog Light Freezing Fog
4:56 AM 13.1 °F 5.4 °F 10.0 °F 88% 30.31 in 0.2 mi NE 4.6 mph - N/A Fog Light Freezing Fog
5:07 AM 12.2 °F 6.1 °F 10.4 °F 92% 30.24 in 0.8 mi East 3.5 mph - N/A   Overcast
5:09 AM 12.2 °F 6.1 °F 10.4 °F 92% 30.24 in 1.2 mi East 3.5 mph - N/A   Overcast
5:11 AM 12.2 °F 6.1 °F 10.4 °F 92% 30.24 in 4.0 mi ESE 3.5 mph - N/A   Overcast
5:56 AM 17.1 °F 7.6 °F 15.1 °F 92% 30.30 in 10.0 mi SE 6.9 mph - N/A   Overcast
6:56 AM 13.1 °F 2.8 °F 10.0 °F 88% 30.34 in 10.0 mi SE 6.9 mph - N/A   Clear
7:56 AM 13.1 °F 5.4 °F 11.1 °F 92% 30.38 in 10.0 mi ESE 4.6 mph - N/A   Clear
8:56 AM 10.0 °F 3.6 °F 8.1 °F 92% 30.42 in 10.0 mi West 3.5 mph - N/A   Clear
9:56 AM 6.1 °F - 3.0 °F 87% 30.48 in 10.0 mi Calm Calm - N/A   Clear
10:16 AM 8.6 °F 0.1 °F 5.0 °F 85% 30.35 in 4.0 mi NE 4.6 mph - N/A   Scattered Clouds
10:21 AM 10.4 °F 4.0 °F 8.6 °F 92% 30.35 in 2.5 mi NE 3.5 mph - N/A   Mostly Cloudy
10:29 AM 12.2 °F 4.3 °F 8.6 °F 85% 30.36 in 1.5 mi ENE 4.6 mph - N/A   Mostly Cloudy
10:33 AM 12.2 °F 4.3 °F 10.4 °F 92% 30.36 in 3.0 mi ENE 4.6 mph - N/A   Overcast
10:40 AM 15.8 °F 8.6 °F 12.2 °F 86% 30.36 in 1.8 mi NE 4.6 mph - N/A   Overcast
10:43 AM 15.8 °F 8.6 °F 14.0 °F 93% 30.36 in 1.0 mi NE 4.6 mph - N/A   Overcast
10:46 AM 17.6 °F 10.7 °F 15.8 °F 93% 30.36 in 0.5 mi NNE 4.6 mph - N/A Fog Light Freezing Fog
10:56 AM 18.1 °F 12.9 °F 16.2 °F 92% 30.45 in 0.2 mi NNE 3.5 mph - N/A Fog Light Freezing Fog
11:16 AM 19.4 °F 14.3 °F 17.6 °F 93% 30.36 in 0.5 mi South 3.5 mph - N/A Fog Light Freezing Fog
11:39 AM 17.6 °F 10.7 °F 15.8 °F 93% 30.36 in 1.0 mi South 4.6 mph - N/A   Overcast
11:42 AM 17.6 °F 10.7 °F 15.8 °F 93% 30.36 in 1.5 mi South 4.6 mph - N/A   Overcast
11:49 AM 17.6 °F 10.7 °F 15.8 °F 93% 30.36 in 2.5 mi South 4.6 mph - N/A   Overcast
11:56 AM 17.1 °F 10.0 °F 15.1 °F 92% 30.49 in 3.0 mi SSE 4.6 mph - N/A   Overcast
12:56 PM 19.0 °F 13.9 °F 17.1 °F 92% 30.48 in 5.0 mi SE 3.5 mph - N/A   Overcast
1:11 PM 19.4 °F 14.3 °F 17.6 °F 93% 30.33 in 1.8 mi Variable 3.5 mph - N/A   Overcast
1:21 PM 19.4 °F 14.3 °F 17.6 °F 93% 30.33 in 2.5 mi South 3.5 mph - N/A   Overcast
1:32 PM 17.6 °F 12.3 °F 17.6 °F 100% 30.33 in 2.5 mi Variable 3.5 mph - N/A   Overcast
1:42 PM 19.4 °F - 17.6 °F 93% 30.33 in 4.0 mi Calm Calm - N/A   Overcast
1:56 PM 19.0 °F - 18.1 °F 96% 30.43 in 3.0 mi Calm Calm - N/A   Overcast
2:56 PM 19.0 °F - 17.1 °F 92% 30.44 in 3.0 mi Calm Calm - N/A   Overcast
3:17 PM 19.4 °F 14.3 °F 17.6 °F 93% 30.34 in 2.5 mi Variable 3.5 mph - N/A   Overcast
3:29 PM 19.4 °F 14.3 °F 17.6 °F 93% 30.35 in 4.0 mi East 3.5 mph - N/A   Overcast
3:56 PM 19.0 °F - 17.1 °F 92% 30.47 in 3.0 mi Calm Calm - N/A   Overcast
4:56 PM 17.1 °F 11.7 °F 15.1 °F 92% 30.50 in 3.0 mi East 3.5 mph - N/A   Overcast
5:14 PM 17.6 °F - 15.8 °F 93% 30.35 in 3.0 mi Calm Calm - N/A   Overcast
5:56 PM 16.2 °F 9.0 °F 14.0 °F 91% 30.49 in 3.0 mi NE 4.6 mph - N/A   Overcast
6:02 PM 15.8 °F 8.6 °F 14.0 °F 93% 30.36 in 2.0 mi ENE 4.6 mph - N/A   Overcast
6:05 PM 15.8 °F 8.6 °F 12.2 °F 86% 30.36 in 1.2 mi ENE 4.6 mph - N/A   Overcast
6:11 PM 15.8 °F - 12.2 °F 86% 30.36 in 0.8 mi Calm Calm - N/A   Overcast
6:22 PM 15.8 °F - 12.2 °F 86% 30.36 in 0.2 mi Calm Calm - N/A Fog Light Freezing Fog
6:56 PM 14.0 °F 6.5 °F 11.1 °F 88% 30.52 in 0.2 mi ENE 4.6 mph - N/A Fog Light Freezing Fog
7:38 PM 8.6 °F - 3.2 °F 79% 30.36 in 0.2 mi Calm Calm - N/A Fog Light Freezing Fog
7:56 PM 3.0 °F - -0.9 °F 84% 30.58 in 0.2 mi Calm Calm - N/A Fog Light Freezing Fog
8:21 PM 1.4 °F - -2.2 °F 85% 30.37 in 0.2 mi Calm Calm - N/A Fog Light Freezing Fog
8:56 PM 0.1 °F -7.7 °F -4.0 °F 83% 30.61 in 0.2 mi NW 3.5 mph - N/A Fog Light Freezing Fog
9:09 PM 3.2 °F -4.2 °F -0.4 °F 85% 30.37 in 0.5 mi North 3.5 mph - N/A Fog Light Freezing Fog
9:19 PM -0.4 °F - -5.8 °F 78% 30.37 in 0.2 mi Calm Calm - N/A Fog Light Freezing Fog
9:56 PM 0.1 °F - -4.0 °F 83% 30.63 in 0.2 mi Calm Calm - N/A Fog Light Freezing Fog
10:40 PM -2.2 °F - -5.8 °F 85% 30.37 in 0.5 mi Calm Calm - N/A Fog Light Freezing Fog
10:56 PM -1.8 °F - -6.0 °F 83% 30.59 in 0.5 mi Calm Calm - N/A Fog Light Freezing Fog
11:03 PM -0.4 °F - -5.8 °F 78% 30.38 in 0.2 mi Calm Calm - N/A Fog Light Freezing Fog
11:10 PM 1.4 °F - -2.2 °F 85% 30.38 in 0.2 mi Calm Calm - N/A Fog Light Freezing Fog
11:46 PM 3.2 °F - -0.4 °F 85% 30.37 in 0.2 mi Calm Calm - N/A Fog Light Freezing Fog
11:56 PM 1.0 °F - -2.9 °F 83% 30.57 in 0.8 mi Calm Calm - N/A   Mostly Cloudy